EST,Max TemperatureF,Mean TemperatureF,Min TemperatureF,Max Dew PointF,MeanDew PointF,Min DewpointF,Max Humidity, Mean Humidity, Min Humidity, Max Sea Level PressureIn, Mean Sea Level PressureIn, Min Sea Level PressureIn, Max VisibilityMiles, Mean VisibilityMiles, Min VisibilityMiles, Max Wind SpeedMPH, Mean Wind SpeedMPH, Max Gust SpeedMPH,PrecipitationIn, CloudCover, Events, WindDirDegrees
2012-11-1,80,68,55,63,56,52,94,76,42,30.07,30.03,29.96,10,9,6,14,6,20,0.00,1,,254
2012-11-2,75,67,59,63,55,37,100,75,25,30.11,30.06,30.02,10,9,7,8,4,,0.00,0,,291
2012-11-3,78,66,53,61,56,50,94,77,44,30.15,30.10,30.08,10,9,7,9,2,,0.00,0,,297
2012-11-4,80,70,59,64,60,57,100,80,48,30.14,30.08,30.02,10,9,7,12,1,,0.00,1,,199
2012-11-5,77,70,64,64,63,59,94,77,54,30.04,29.99,29.95,10,9,5,8,4,,0.00,2,,256
2012-11-6,80,73,64,66,63,55,94,79,42,29.96,29.90,29.83,10,9,7,16,6,20,0.00,2,,254
2012-11-7,69,62,55,63,51,43,94,70,40,30.01,29.92,29.85,10,10,7,21,8,28,0.00,1,,298
2012-11-8,68,60,53,52,45,32,82,63,30,30.14,30.07,29.98,10,10,7,15,8,22,0.00,1,,320
2012-11-9,71,63,55,55,49,46,77,60,43,30.23,30.18,30.13,10,9,3,16,8,21,0.00,4,,7
2012-11-10,77,70,64,55,50,46,73,48,38,30.30,30.24,30.20,10,9,7,15,8,24,0.00,7,,74
2012-11-11,80,76,71,61,56,50,61,53,44,30.29,30.24,30.22,10,9,7,17,13,24,0.00,4,,96
2012-11-12,80,76,73,64,63,61,69,65,54,30.24,30.19,30.16,10,9,7,16,14,25,0.00,4,,98
2012-11-13,80,74,68,64,63,61,88,67,54,30.17,30.12,30.09,10,9,7,12,8,16,0.00,3,,75
2012-11-14,78,72,64,68,66,61,100,89,61,30.15,30.11,30.09,10,9,3,17,3,22,0.06,5,Rain-Thunderstorm,324
2012-11-15,77,70,62,70,64,61,100,90,78,30.12,30.09,30.07,10,8,0,14,4,16,0.10,3,Rain,330
2012-11-16,77,70,62,68,64,61,100,90,69,30.12,30.09,30.06,10,8,4,16,8,23,0.00,6,Rain-Thunderstorm,340
2012-11-17,78,72,66,66,64,59,94,79,51,30.13,30.09,30.07,10,8,2,21,9,26,1.01,5,Rain-Thunderstorm,29
2012-11-18,75,70,66,68,64,61,94,80,73,30.15,30.10,30.06,10,9,5,21,10,25,0.00,4,,2
2012-11-19,66,62,57,61,57,55,94,87,78,30.15,30.10,30.05,10,9,3,12,8,16,0.00,4,,321
2012-11-20,73,66,59,64,59,55,94,85,69,30.05,30.01,29.95,10,7,3,16,10,23,0.00,7,,323
2012-11-21,71,65,59,59,55,50,94,80,52,30.05,30.01,29.96,10,10,6,16,8,28,0.00,1,,327
2012-11-22,71,63,55,52,48,45,82,65,46,30.15,30.08,30.02,10,9,7,20,11,28,0.00,0,,322
2012-11-23,73,63,51,57,51,46,94,72,44,30.17,30.11,30.08,10,10,7,12,8,21,0.00,1,,329
2012-11-24,75,62,50,59,50,45,94,73,38,30.12,30.07,30.00,10,9,6,10,4,16,0.00,0,,292
2012-11-25,73,63,53,59,55,50,94,81,53,30.16,30.11,30.07,10,9,7,10,4,,0.00,1,,325
2012-11-26,77,67,57,64,60,54,94,79,65,30.23,30.18,30.14,10,9,5,14,3,17,0.00,4,,118
2012-11-27,77,70,64,64,62,57,88,74,50,30.20,30.16,30.12,10,9,7,12,5,,0.00,5,,146
2012-11-28,75,70,64,66,63,63,94,88,69,30.22,30.17,30.12,10,9,5,16,6,23,0.00,2,,325
2012-11-29,71,66,60,63,59,55,94,79,57,30.24,30.21,30.18,10,9,7,17,9,23,0.00,6,,360
2012-11-30,71,70,69,57,55,52,64,56,50,30.22,30.20,30.19,10,10,10,15,12,22,0.00,3,,76